{"data":{"norad_id":81219,"intl_designator":"","name":"UNKNOWN","alt_names":[],"object_type":"UNKNOWN","status":"UNKNOWN","operator":null,"country":null,"launch_date":null,"launch_site_code":null,"launch_vehicle":null,"mission":null,"orbit_class":"UNKNOWN","rcs_meters":null,"size_class":null,"mass_kg":null,"dimensions":null,"purposes":[],"wikipedia_slug":null,"has_3d_model":false,"image_url":null,"decayed_at":null,"tle_current":{"epoch":"2026-05-20T23:58:56.579808Z","epoch_age_seconds":410964,"freshness":"STALE","line1":"1 81219U          26140.99926597  .00000330  00000+0  29275-3 0  9993","line2":"2 81219  82.9258 246.4847 0023347 126.2327 234.0996 13.81957582629519","mean_motion":13.81957582,"eccentricity":0.0023347,"inclination_deg":82.9258,"raan_deg":246.4847,"arg_perigee_deg":126.2327,"mean_anomaly_deg":234.0996,"bstar":0.00029275,"rev_number":62951,"period_min":104.2000144401,"perigee_km":939.82640238996,"apogee_km":974.07686525673,"semimajor_km":7335.0886338233,"source":"CELESTRAK","updated_at":"2026-05-25T13:38:09.446960Z"}}}